Regional Weather Roundup
Issued by NWS

Home | Current Version | Previous Version | Text Only | Print | Product List | Glossary On
Versions: 1 2 3 4 5 6 7 8 9 10 11 12 13 14 15 16 17 18 19 20 21 22 23 24 25 26 27 28 29 30 31 32 33 34 35 36 37 38 39 40 41 42 43 44 45 46 47 48 49 50
000
ASUS45 KCYS 100510
RWRWY

WYOMING REGIONAL WEATHER ROUNDUP
NATIONAL WEATHER SERVICE CHEYENNE WY
1100 PM MDT WED JUL 09 2014

NOTE:  "FAIR" INDICATES FEW OR NO CLOUDS BELOW 12,000 FEET
WITH NO SIGNIFICANT WEATHER AND/OR OBSTRUCTIONS TO VISIBILITY.

WYZ001-100600-
YELLOWSTONE NATIONAL PARK

CITY           SKY/WX    TMP DP  RH WIND       PRES   REMARKS
LK YELLOWSTONE   N/A     60  46  59 CALM      30.22F
W YELLOWSTONE  NOT AVBL

$$
WYZ002>013-054>058-071-098>099-100600-
NORTHERN WYOMING

CITY           SKY/WX    TMP DP  RH WIND       PRES   REMARKS
JACKSON        MOCLDY    66  43  42 CALM      30.09R
CODY           NOT AVBL
GREYBULL       CLOUDY    78  57  48 S5        29.84R
WORLAND        MOCLDY    76  52  43 NE6       29.86S
SHERIDAN       CLOUDY    74  55  51 SW22G28   29.92R
BUFFALO        MOCLDY    76  50  40 CALM      30.01R
GILLETTE       CLOUDY    73  57  57 S16G24    29.95R
HULETT         FAIR      64  55  72 MISG      29.97
NEWCASTLE      FAIR      64  54  68 SE8       29.98

$$
WYZ014>020-022>026-101>103-100600-
CENTRAL WYOMING

CITY           SKY/WX    TMP DP  RH WIND       PRES   REMARKS
BIG PINEY      MOCLDY    72  44  36 W9        30.17R
PINEDALE       MOCLDY    68  45  42 E3        30.18R
DUBOIS         FAIR      66  34  30 NW8       30.13S
LANDER         MOCLDY    81  38  21 W3        29.96R
RIVERTON       MOCLDY    81  38  21 N18G26    29.95R
CASPER         NOT AVBL
DOUGLAS        CLEAR     69  57  65 SE8       30.00R

$$
WYZ021-027>030-104>119-100600-
SOUTHERN WYOMING

CITY           SKY/WX    TMP DP  RH WIND       PRES   REMARKS
EVANSTON       NOT AVBL
KEMMERER       HVY RAIN N/A N/A N/A NE17G26   30.21F
FORT BRIDGER   FAIR      69  48  47 W12       30.20S
ROCK SPRINGS   MOCLDY    74  41  30 SW7       30.15R
DIXON          LGT RAIN  72  42  33 E3        30.18F
RAWLINS        MOCLDY    73  40  30 SW13      30.12F
SARATOGA       FAIR      72  37  28 S7G24     30.17R
LARAMIE        MOCLDY    63  49  60 SE7       30.17R
CHEYENNE       CLEAR     69  41  36 SW5       30.09F
TORRINGTON     CLEAR     69  60  73 E9        29.94S

$$



USA.gov is the U.S. government's official web portal to all federal, state and local government web resources and services.